Content
SEND FEEDBACK

Daily
Averages
Monthly
Summary
United States of America

ASHEVILLE, NORTH CAROLINA


Home > North America > United States > North Carolina
Elevation: 2240 feet     Latitude: 35 36N     Longitude: 082 32W

WEATHER
 
SELECT A DAY
Number of Records: 228,757;   Date Range: 1/1/95 - 9/30/14
 
SHARE

PRINT THIS DATA

[ ← Previous Day ]
WEATHER ALMANAC - MARCH 13, 2013
[ Next Day → ]
[ °C ]   °F
Weather ElementAverageHighLow
Temperature37.7 °F48 °F (1:54 pm)28.9 °F (7:54 am)
Dewpoint21.3 °F28 °F (2:54 am)15.1 °F (5:54 pm)
Humidity55.2 %92 % (7:54 am)32 % (1:54 pm)
Barometer30.07 in30.17 in (11:54 pm)30.02 in (4:54 am)
Wind Speed10.9 mph25.3 mph (4:54 pm)
Wind Gust32.2 mph (5:54 pm)
Weather ElementAverage
Visibility10 mi
Wind DirectionWSW (234.3 °)

Weather ElementTotal
Precipitation---
Heating Degree Days26.6 (Base 65)
Averaged from 23 records on March 13, 2013
WEATHER CONDITIONS BREAKOUT
WIND DIRECTION BREAKOUT
WEATHER BY HOUR - MARCH 13, 2013
[ °C ]   °F
Local TimeTemperatureDewpointHumidityBarometerVisibilityWind DirectionWind SpeedGust SpeedPrecipitationEventsConditions
2:54 AM35.1 °F28.0 °F76 %30.04 in10.0 miNNW (330°)8.1 mphClear
3:54 AM34.0 °F28.0 °F79 %30.03 in10.0 miNNW (340°)5.8 mphClear
4:54 AM35.1 °F26.1 °F70 %30.02 in10.0 miNNW (330°)4.6 mphClear
5:54 AM32.0 °F26.1 °F79 %30.03 in10.0 miNNW (340°)3.5 mphClear
6:54 AM30.0 °F26.1 °F85 %30.04 in10.0 miCalmClear
7:54 AM28.9 °F27.0 °F92 %30.06 in10.0 miCalmClear
8:54 AM30.9 °F28.0 °F89 %30.08 in10.0 miCalmMostly Cloudy
9:54 AM39.9 °F27.0 °F60 %30.06 in10.0 miVariable4.6 mphOvercast
10:54 AM43.0 °F27.0 °F53 %30.06 in10.0 miNorth (350°)3.5 mphMostly Cloudy
11:54 AM46.0 °F19.9 °F35 %30.06 in10.0 miVariable5.8 mphScattered Clouds
12:54 PM46.9 °F19.9 °F34 %30.05 in10.0 miWNW (300°)8.1 mph20.7 mphPartly Cloudy
1:54 PM48.0 °F19.0 °F32 %30.04 in10.0 miWNW (290°)17.3 mph23.0 mphClear
2:20 PM46.4 °F19.4 °F34 %30.03 in10.0 miNorth (10°)12.7 mph23.0 mphPartly Cloudy
2:54 PM44.6 °F19.4 °F37 %30.02 in10.0 miNNE (20°)18.4 mph26.5 mphPartly Cloudy
3:54 PM43.0 °F16.0 °F34 %30.04 in10.0 miNorth (360°)17.3 mph31.1 mphMostly Cloudy
4:54 PM42.8 °F15.8 °F34 %30.05 in10.0 miNNW (340°)25.3 mph31.1 mphClear
5:54 PM39.9 °F15.1 °F36 %30.09 in10.0 miNNW (330°)21.9 mph32.2 mphClear
6:54 PM37.9 °F16.0 °F41 %30.12 in10.0 miNNW (340°)17.3 mph26.5 mphPartly Cloudy
7:54 PM35.1 °F19.0 °F52 %30.14 in10.0 miNNW (330°)15.0 mph19.6 mphPartly Cloudy
8:54 PM34.0 °F18.0 °F52 %30.16 in10.0 miNNW (330°)11.5 mphMostly Cloudy
9:54 PM33.1 °F17.1 °F52 %30.16 in10.0 miNNW (340°)18.4 mph25.3 mphMostly Cloudy
10:54 PM30.9 °F17.1 °F57 %30.16 in10.0 miNorth (350°)16.1 mph24.2 mphOvercast
11:54 PM30.0 °F16.0 °F56 %30.17 in10.0 miNorth (360°)16.1 mph25.3 mphMostly Cloudy
Hourly data recorded from KAVL, located miles away from Asheville, North Carolina







STORIES FROM OUR PARTNERS